Location: Exeidioux
(45.6312°N, 1.6819°E)
Time: 20:50:14
(UTC+00:00)

SAR-Lupe-1 - Pass Details

Date: 03 March 2021
Orbit: 482 x 483 km, 98.2° (Epoch: 30 March)

Event Time Altitude Azimuth Distance (km) Brightness Sun altitude
Rises 18:25:06 0° 20° (NNE) 2,558 7.5 -8.1°
Reaches altitude 10° 18:27:15 10° 27° (NNE) 1,673 6.5 -8.5°
Maximum altitude 18:30:41 42° 100° (E) 704 4.4 -9.1°
Drops below altitude 10° 18:34:04 10° 172° (S) 1,659 6.7 -9.7°
Sets 18:36:12 0° 180° (S) 2,533 7.7 -10.1°
